DW7093 Weather Reports


time (UTC)temp
C
wind
direction
speed
KPH
gust
KPH
rain 1hr
cm
rain 24hr
cm
rain mn
cm
humidity
%
barometer
mb
20260505010055 19 181 0.0 3.2 0.00 0.00 0.00 100 1000.8
20260505004604 20 166 1.6 4.8 0.00 0.00 0.00 100 1000.9
20260505003055 20 183 1.6 4.8 0.00 0.00 0.00 100 1001.0
20260505001605 20 198 1.6 12.9 0.00 0.00 0.00 100 1001.0
20260505000106 21 18 4.8 12.9 0.00 0.00 0.00 100 1001.0
20260504234555 21 101 3.2 17.7 0.00 0.00 0.00 77 1001.1
20260504233103 21 266 3.2 16.1 0.00 0.00 0.00 62 1001.1
20260504231547 22 162 3.2 17.7 0.00 0.00 0.00 56 1001.3
20260504230047 22 100 9.7 35.4 0.00 0.00 0.00 50 1001.4
20260504224547 23 236 4.8 17.7 0.00 0.00 0.00 48 1001.6
20260504223047 23 269 6.4 25.7 0.00 0.00 0.00 47 1001.7
20260504221545 23 271 11.3 30.6 0.00 0.00 0.00 45 1001.8
20260504220045 23 205 14.5 38.6 0.00 0.00 0.00 44 1001.6
20260504214542 24 268 8.0 30.6 0.00 0.00 0.00 47 1001.4
20260504213041 24 167 8.0 32.2 0.00 0.00 0.00 51 1001.6
20260504211541 25 274 4.8 27.4 0.00 0.00 0.00 52 1001.4
20260504210040 24 246 8.0 27.4 0.00 0.00 0.00 53 1001.3
20260504204537 24 261 8.0 25.7 0.00 0.00 0.00 57 1001.3
20260504203035 25 159 9.7 30.6 0.00 0.00 0.00 60 1001.4
20260504201534 24 165 4.8 17.7 0.00 0.00 0.00 64 1001.6
20260504200032 24 304 3.2 17.7 0.00 0.00 0.00 67 1001.9
20260504194532 23 317 6.4 20.9 0.00 0.00 0.00 67 1002.0
20260504193028 23 149 8.0 29.0 0.00 0.00 0.00 67 1002.2
20260504191527 23 160 3.2 22.5 0.00 0.00 0.00 66 1002.5
20260504190027 24 269 4.8 19.3 0.00 0.00 0.00 71 1002.4
20260504184525 24 290 8.0 19.3 0.00 0.00 0.00 74 1002.5
20260504183020 23 277 8.0 20.9 0.00 0.00 0.00 70 1002.7
20260504181518 23 307 4.8 24.1 0.00 0.00 0.00 78 1003.0
20260504180017 23 277 1.6 22.5 0.00 0.00 0.00 80 1003.3
20260504174513 22 267 3.2 14.5 0.00 0.00 0.00 78 1003.3
20260504173010 22 105 6.4 16.1 0.00 0.00 0.00 76 1003.5
20260504171507 22 267 3.2 16.1 0.00 0.00 0.00 71 1004.0
20260504081538 8 166 0.0 3.2 0.00 0.00 0.00 100 1006.8
20260504050015 7 162 0.0 8.0 0.00 0.00 0.00 100 1009.3
20260504044519 7 180 0.0 4.8 0.00 0.00 0.00 100 1009.4
20260504043012 7 167 1.6 4.8 0.00 0.00 0.00 100 1009.3
20260504041513 7 166 0.0 4.8 0.00 0.00 0.00 100 1009.4
20260504040013 7 161 1.6 4.8 0.00 0.00 0.00 100 1009.6
20260504034507 7 158 1.6 4.8 0.00 0.00 0.00 100 1009.8
20260504033011 7 176 3.2 9.7 0.00 0.00 0.00 100 1009.9
20260504031504 7 163 3.2 9.7 0.00 0.00 0.00 100 1010.0
20260504030005 8 159 4.8 9.7 0.00 0.00 0.00 100 1010.1
20260504024503 8 184 4.8 9.7 0.00 0.00 0.00 100 1010.2
20260504023002 8 157 3.2 14.5 0.00 0.00 0.00 100 1010.3
20260504021501 8 155 4.8 11.3 0.00 0.00 0.00 100 1010.2
20260504020001 8 165 4.8 14.5 0.00 0.00 0.00 100 1010.2
20260504014601 8 167 4.8 11.3 0.00 0.00 0.00 100 1010.2
20260504013116 8 165 6.4 12.9 0.00 0.00 0.00 100 1010.3
20260504011600 8 148 6.4 14.5 0.00 0.00 0.00 100 1010.3